• In France
  • List of Countries
  • For 7 days
  • Water Temperature
  • Satellite Maps
  • Weather Map
  • Weather Widgets
  • user-avatar
    Login

    Hourly Weather Salta

    Today, 24 September, Monday

    Time Temperature Precipitation Wind Pressure Humidity
    00:00 +24°C° 1.1 mm 1 mps 650 mmHg 61%
    01:00 +24°C° 1.1 mm 1 mps 650 mmHg 63%
    02:00 +23°C° 0 mm 1 mps 650 mmHg 67%
    03:00 +23°C° 0.9 mm 1 mps 650 mmHg 70%
    04:00 +21°C° 0.9 mm 2 mps 650 mmHg 73%
    05:00 +21°C° 0.9 mm 2 mps 650 mmHg 76%
    06:00 +21°C° 0.5 mm 2 mps 651 mmHg 76%
    07:00 +21°C° 0.5 mm 2 mps 651 mmHg 76%
    08:00 +23°C° 0.5 mm 2 mps 652 mmHg 75%
    09:00 +24°C° 0 mm 2 mps 652 mmHg 71%
    10:00 +24°C° 0 mm 3 mps 652 mmHg 66%
    11:00 +25°C° 0 mm 3 mps 652 mmHg 62%
    12:00 +25°C° 0.3 mm 3 mps 651 mmHg 62%
    13:00 +26°C° 0.3 mm 3 mps 651 mmHg 61%
    14:00 +26°C° 0.3 mm 3 mps 650 mmHg 61%
    15:00 +25°C° 1.9 mm 3 mps 650 mmHg 65%
    16:00 +24°C° 1.9 mm 3 mps 649 mmHg 70%
    17:00 +22°C° 1.9 mm 3 mps 649 mmHg 74%
    18:00 +21°C° 0.4 mm 2 mps 649 mmHg 76%
    19:00 +20°C° 0.4 mm 2 mps 649 mmHg 79%
    20:00 +21°C° 0.4 mm 1 mps 650 mmHg 81%
    21:00 +21°C° 0.1 mm 1 mps 650 mmHg 81%
    22:00 +20°C° 0.1 mm 1 mps 650 mmHg 80%
    23:00 +20°C° 0.1 mm 1 mps 650 mmHg 79%

    Tomorrow, 25 September, Tuesday

    Time Temperature Precipitation Wind Pressure Humidity
    00:00 +20°C° 0 mm 1 mps 650 mmHg 80%
    01:00 +19°C° 0 mm 1 mps 650 mmHg 81%
    02:00 +19°C° 0 mm 1 mps 649 mmHg 82%
    03:00 +19°C° 0 mm 1 mps 649 mmHg 81%
    04:00 +18°C° 0 mm 1 mps 649 mmHg 80%
    05:00 +18°C° 0 mm 1 mps 649 mmHg 79%
    06:00 +19°C° 0 mm 1 mps 649 mmHg 72%
    07:00 +20°C° 0 mm 1 mps 650 mmHg 66%
    08:00 +20°C° 0 mm 2 mps 651 mmHg 59%
    09:00 +23°C° 0 mm 2 mps 651 mmHg 55%
    10:00 +24°C° 0 mm 2 mps 651 mmHg 50%
    11:00 +26°C° 0 mm 2 mps 651 mmHg 46%
    12:00 +26°C° 0 mm 2 mps 651 mmHg 44%
    13:00 +27°C° 0 mm 2 mps 650 mmHg 43%
    14:00 +28°C° 0 mm 3 mps 649 mmHg 42%
    15:00 +27°C° 0.4 mm 3 mps 649 mmHg 44%
    16:00 +27°C° 0.4 mm 3 mps 648 mmHg 47%
    17:00 +26°C° 0.4 mm 3 mps 648 mmHg 50%
    18:00 +25°C° 0.1 mm 2 mps 648 mmHg 57%
    19:00 +23°C° 0.1 mm 2 mps 649 mmHg 65%
    20:00 +22°C° 0.1 mm 1 mps 649 mmHg 72%
    21:00 +22°C° 0.1 mm 1 mps 649 mmHg 74%
    22:00 +21°C° 0.1 mm 1 mps 649 mmHg 75%
    23:00 +21°C° 0.1 mm 1 mps 650 mmHg 77%

    Day after tomorrow, 26 September, Wednesday

    Time Temperature Precipitation Wind Pressure Humidity
    00:00 +20°C° 0 mm 1 mps 649 mmHg 76%
    01:00 +20°C° 0 mm 1 mps 649 mmHg 75%
    02:00 +20°C° 0 mm 1 mps 648 mmHg 74%
    03:00 +19°C° 0 mm 1 mps 648 mmHg 73%
    04:00 +19°C° 0 mm 1 mps 648 mmHg 72%
    05:00 +19°C° 0 mm 1 mps 649 mmHg 71%
    06:00 +20°C° 0 mm 1 mps 649 mmHg 65%
    07:00 +21°C° 0 mm 1 mps 650 mmHg 59%
    08:00 +23°C° 0 mm 1 mps 651 mmHg 53%
    09:00 +24°C° 0 mm 2 mps 651 mmHg 51%
    10:00 +25°C° 0 mm 2 mps 651 mmHg 48%
    11:00 +26°C° 0 mm 2 mps 651 mmHg 45%
    12:00 +27°C° 0.2 mm 2 mps 651 mmHg 45%
    13:00 +27°C° 0.2 mm 3 mps 650 mmHg 44%
    14:00 +28°C° 0.2 mm 3 mps 649 mmHg 43%
    15:00 +27°C° 0.1 mm 3 mps 649 mmHg 47%
    16:00 +27°C° 0.1 mm 3 mps 649 mmHg 50%
    17:00 +26°C° 0.1 mm 3 mps 648 mmHg 54%
    18:00 +25°C° 0 mm 3 mps 649 mmHg 60%
    19:00 +24°C° 0 mm 2 mps 649 mmHg 67%
    20:00 +21°C° 0 mm 2 mps 650 mmHg 74%
    21:00 +22°C° 0 mm 1 mps 650 mmHg 75%
    22:00 +22°C° 0 mm 1 mps 650 mmHg 77%
    23:00 +21°C° 0 mm 1 mps 650 mmHg 78%

    27 September, Thursday

    Time Temperature Precipitation Wind Pressure Humidity
    00:00 +21°C° 0 mm 1 mps 650 mmHg 78%
    01:00 +20°C° 0 mm 1 mps 650 mmHg 78%
    02:00 +20°C° 0 mm 1 mps 649 mmHg 77%
    03:00 +20°C° 0 mm 1 mps 649 mmHg 76%
    04:00 +19°C° 0 mm 1 mps 649 mmHg 74%
    05:00 +19°C° 0 mm 1 mps 649 mmHg 73%
    06:00 +20°C° 0 mm 1 mps 650 mmHg 69%
    07:00 +21°C° 0 mm 1 mps 651 mmHg 66%
    08:00 +21°C° 0 mm 2 mps 652 mmHg 62%
    09:00 +23°C° 0 mm 2 mps 652 mmHg 59%
    10:00 +24°C° 0 mm 2 mps 652 mmHg 56%
    11:00 +25°C° 0 mm 2 mps 652 mmHg 53%
    12:00 +25°C° 0 mm 2 mps 651 mmHg 52%
    13:00 +26°C° 0 mm 2 mps 650 mmHg 52%
    14:00 +26°C° 0 mm 2 mps 649 mmHg 51%
    15:00 +25°C° 0.1 mm 2 mps 649 mmHg 56%
    16:00 +25°C° 0.1 mm 2 mps 649 mmHg 61%
    17:00 +24°C° 0.1 mm 2 mps 648 mmHg 66%
    18:00 +23°C° 0.1 mm 2 mps 649 mmHg 70%
    19:00 +21°C° 0.1 mm 2 mps 650 mmHg 73%
    20:00 +21°C° 0.1 mm 1 mps 650 mmHg 77%
    21:00 +21°C° 0 mm 1 mps 650 mmHg 78%
    22:00 +21°C° 0 mm 1 mps 651 mmHg 79%
    23:00 +20°C° 0 mm 1 mps 651 mmHg 80%

    28 September, Friday

    Time Temperature Precipitation Wind Pressure Humidity
    00:00 +20°C° 0 mm 1 mps 650 mmHg 81%
    01:00 +20°C° 0 mm 1 mps 650 mmHg 81%
    02:00 +19°C° 0 mm 1 mps 650 mmHg 82%
    03:00 +19°C° 0 mm 1 mps 650 mmHg 81%
    04:00 +19°C° 0 mm 1 mps 650 mmHg 80%
    05:00 +19°C° 0 mm 1 mps 650 mmHg 79%
    06:00 +20°C° 0 mm 1 mps 651 mmHg 75%
    07:00 +21°C° 0 mm 1 mps 652 mmHg 70%
    08:00 +22°C° 0 mm 1 mps 653 mmHg 65%
    09:00 +23°C° 0 mm 1 mps 653 mmHg 61%
    10:00 +24°C° 0 mm 2 mps 653 mmHg 57%
    11:00 +25°C° 0 mm 2 mps 652 mmHg 53%
    12:00 +26°C° 0.1 mm 2 mps 652 mmHg 51%
    13:00 +27°C° 0.1 mm 3 mps 651 mmHg 50%
    14:00 +28°C° 0.1 mm 3 mps 650 mmHg 48%
    15:00 +27°C° 0 mm 3 mps 650 mmHg 51%
    16:00 +27°C° 0 mm 3 mps 649 mmHg 54%
    17:00 +26°C° 0 mm 3 mps 649 mmHg 56%
    18:00 +25°C° 0 mm 3 mps 649 mmHg 62%
    19:00 +24°C° 0 mm 2 mps 649 mmHg 68%
    20:00 +23°C° 0 mm 2 mps 649 mmHg 74%
    21:00 +22°C° 0 mm 1 mps 649 mmHg 76%
    22:00 +21°C° 0 mm 1 mps 649 mmHg 78%
    23:00 +21°C° 0 mm 1 mps 649 mmHg 79%

    29 September, Saturday

    Time Temperature Precipitation Wind Pressure Humidity
    00:00 +21°C° 0 mm 1 mps 649 mmHg 75%
    01:00 +21°C° 0 mm 1 mps 649 mmHg 71%
    02:00 +21°C° 0 mm 1 mps 648 mmHg 67%
    03:00 +20°C° 0 mm 2 mps 648 mmHg 64%
    04:00 +19°C° 0 mm 2 mps 648 mmHg 61%
    05:00 +19°C° 0 mm 2 mps 649 mmHg 58%
    06:00 +21°C° 0 mm 2 mps 649 mmHg 54%
    07:00 +23°C° 0 mm 2 mps 650 mmHg 51%
    08:00 +24°C° 0 mm 2 mps 651 mmHg 47%
    09:00 +26°C° 0 mm 2 mps 651 mmHg 44%
    10:00 +28°C° 0 mm 2 mps 651 mmHg 40%
    11:00 +30°C° 0 mm 3 mps 651 mmHg 36%
    12:00 +31°C° 0 mm 3 mps 650 mmHg 33%
    13:00 +33°C° 0 mm 3 mps 650 mmHg 29%
    14:00 +35°C° 0 mm 3 mps 649 mmHg 25%
    15:00 +34°C° 0 mm 3 mps 649 mmHg 28%
    16:00 +33°C° 0 mm 3 mps 649 mmHg 31%
    17:00 +33°C° 0 mm 3 mps 648 mmHg 34%
    18:00 +30°C° 0.3 mm 2 mps 648 mmHg 43%
    19:00 +28°C° 0.3 mm 2 mps 648 mmHg 51%
    20:00 +25°C° 0.3 mm 1 mps 648 mmHg 60%
    21:00 +25°C° 0 mm 1 mps 648 mmHg 62%
    22:00 +24°C° 0 mm 1 mps 648 mmHg 64%
    23:00 +24°C° 0 mm 1 mps 648 mmHg 66%
    Show more